Weather Roundup
Issued by NWS

Home | Current Version | Previous Version | Graphics & Text | Print | Product List | Glossary Off
Versions: 1 2 3 4 5 6 7 8 9 10 11 12 13 14 15 16 17 18 19 20 21 22 23 24 25 26 27 28 29 30 31 32 33 34 35 36 37 38 39 40 41 42 43 44 45 46 47 48 49 50

110
NZUS93 KARX 080559
HRRWXR

CURRENT HOURLY OBSERVATIONS ACROSS
MUCH OF THE UPPER MISSISSIPPI VALLEY
NATIONAL WEATHER SERVICE LA CROSSE WI
1200 AM CST MON FEB 08 2016


...SOUTHEAST MINNESOTA...


CITY           SKY/WX    TMP DP  RH WIND       PRES   REMARKS
ROCHESTER      LGT SNOW  17  13  84 NW22      29.70S FOG     WCI   0
ROCHESTER/MAYO CLOUDY    18  13  81 NW22G32   29.71S WCI   1
WINONA         LGT SNOW  23  19  86 NW13G22   29.72R WCI  11
AUSTIN         LGT SNOW  18  14  86 NW23G31   29.74R WCI   0
ALBERT LEA     LGT SNOW  18  14  86 NW17G26   29.76S WCI   2
DODGE CENTER   FLURRIES  16  12  86 NW10      29.72S WCI   3
PRESTON        LGT SNOW  19  15  86 NW21G26   29.69S WCI   2
OWATONNA       LGT SNOW  16  10  79 NW24      29.76F WCI  -3
FARIBAULT      FLURRIES  16  10  79 NW12G24   29.78R WCI   3
$$

...ELSEWHERE IN MINNESOTA...


CITY           SKY/WX    TMP DP  RH WIND       PRES   REMARKS
MINNEAPOLIS    FLURRIES  16   8  71 NW22      29.78R WCI  -2
INTNL FALLS    LGT SNOW   8   3  80 NW15G22   29.80R WCI  -9
DULUTH         LGT SNOW  16  12  84 NW15      29.64R BLWGSNOWWCI   1
RED WING       FLURRIES  19  10  68 NW13G18   29.74R WCI   7
REDWOOD FALLS  LGT SNOW  16  10  77 NW28G47   29.88R WCI  -4
MANKATO        CLOUDY   N/A N/A N/A NW26G38   29.80S
WORTHINGTON    CLOUDY   N/A N/A N/A NW30G39   29.89S
FAIRMONT       CLOUDY    18  10  73 NW28      29.83R WCI  -1
$$

...SOUTHWEST WISCONSIN...


CITY           SKY/WX    TMP DP  RH WIND       PRES   REMARKS
LA CROSSE      LGT SNOW  26  21  81 NW13      29.68R WCI  15
PRAIRIE DU CHI CLOUDY    31  20  64 NW20G26   29.69R WCI  18
BOSCOBEL       CLOUDY    32  25  75 W10G24    29.67R WCI  24
LONE ROCK      FLURRIES  34  31  88 W8        29.63S WCI  27
PLATTEVILLE    CLOUDY    33  32  95 W12       29.64F WCI  25
FORT MC COY    CLOUDY    30  24  77 NW14G20   29.65R WCI  20
CAMP DOUGLAS   MIX PCPN  32  30  93 NW18      29.61S WCI  20
VIROQUA        CLOUDY    28  24  85 W15G23    29.63R WCI  16
WIS DELLS      CLOUDY    34  29  83 SW7       29.59F WCI  28
$$

...ELSEWHERE IN WISCONSIN...


CITY           SKY/WX    TMP DP  RH WIND       PRES   REMARKS
MILWAUKEE      CLEAR     31  26  82 SW6       29.63F WCI  25
MADISON        CLOUDY    33  28  81 MISG      29.61F
GREEN BAY      CLOUDY    35  28  75 SW5       29.57F WCI  31
EAU CLAIRE     FLURRIES  22  16  78 NW9       29.66S WCI  12
BLACK RVR FLS  LGT SNOW  28  23  80 W10G18    29.65R WCI  19
MEDFORD        FLURRIES  27  25  92 W10G16    29.56R WCI  17
WAUSAU         CLOUDY    32  27  81 NW12      29.54R WCI  23
WIS RAPIDS     CLOUDY    31  24  75 NW10      29.60S WCI  22
MARSHFIELD     CLOUDY    28  22  78 W12       29.57S WCI  18
RICE LAKE      CLOUDY    21  15  78 W10       29.68R WCI   9
$$

...NORTHEAST IOWA...


CITY           SKY/WX    TMP DP  RH WIND       PRES   REMARKS
WATERLOO       CLOUDY    25  17  72 NW28G37   29.76R WCI   9
DUBUQUE        CLOUDY    31  27  85 NW24G32   29.67S WCI  17
DECORAH        CLOUDY    27  19  74 NW14G28   29.68S WCI  15
MASON CITY     LGT SNOW  19  16  88 NW30G40   29.79F VSB 3/4 WCI   0
CHARLES CITY   CLOUDY    23  19  86 NW25G35   29.76R WCI   7
OELWEIN        CLOUDY    27  21  80 NW25G33   29.73R WCI  11
$$

...ELSEWHERE IN IOWA...


CITY           SKY/WX    TMP DP  RH WIND       PRES   REMARKS
DES MOINES     FLURRIES  29  21  72 NW20G28   29.86S WCI  16
IOWA CITY      CLOUDY    33  29  85 NW16G23   29.77S WCI  23
FORT DODGE     CLOUDY    23  18  80 NW17G25   29.86S WCI   9
MARSHALLTOWN   CLOUDY    27  21  78 NW25G38   29.80R WCI  12
CEDAR RAPIDS   CLOUDY    31  27  85 NW20G30   29.74R WCI  19
$$

...NORTHERN ILLINOIS...


CITY           SKY/WX    TMP DP  RH WIND       PRES   REMARKS
CHICAGO-OHARE  CLEAR     32  27  81 SW8       29.68F WCI  25
CHICAGO-MIDWAY PTCLDY    34  26  72 SW8       29.69F WCI  27
MOLINE         CLOUDY    34  30  85 W8        29.72F WCI  27
ROCKFORD       PTCLDY    32  27  81 SW8       29.69F WCI  25
PEORIA         PTCLDY    33  26  75 W8        29.76F WCI  26
$$

NOTE: "FAIR" INDICATES FEW OR NO CLOUDS BELOW 12,000 FEET WITH NO
SIGNIFICANT WEATHER AND/OR OBSTRUCTIONS TO VISIBILITY. WIND
SPEEDS ARE IN MILES-PER-HOUR.




USA.gov is the U.S. government's official web portal to all federal, state and local government web resources and services.